Preview of NWS' New Version of Forecast
This preview is not operational and should not be used for support decisions.

Regional Weather Roundup (RWR)

Issued by National Weather Service (NWS)

                            
000
ASUS42 KTBW 190916
RWRFL 
FLORIDA REGIONAL WEATHER ROUNDUP
NATIONAL WEATHER SERVICE TAMPA BAY RUSKIN FL
500 AM EDT FRI APR 19 2019

NOTE: "FAIR" INDICATES FEW OR NO CLOUDS BELOW 12,000 FEET WITH NO
SIGNIFICANT WEATHER AND/OR OBSTRUCTIONS TO VISIBILITY.

FLZ001>010-012>015-112-114-115-191000-
PANHANDLE FLORIDA
  
CITY           SKY/WX    TMP DP  RH WIND       PRES   REMARKS
PENSACOLA      CLOUDY    68  67  96 W13G24    29.59S                  
PENSACOLA NAS  CLOUDY    67  65  93 NW10      29.59S                  
MILTON NAS       N/A    N/A N/A N/A MISG      29.58F                  
CRESTVIEW      LGT RAIN  70  66  87 SW14G25   29.60R                  
DUKE FIELD     HVY RAIN  70  70 100 SW15G21   29.59R                  
VALPARAISO     HVY RAIN  70  70 100 SW13      29.59S                  
MARY ESTHER    RAIN      69  67  91 SW15G22   29.59  FOG              
PANAMA CITY    LGT RAIN  75  71  87 S21G36    29.61F                  
TYNDALL AFB    CLOUDY    73  72  94 S24G32    29.61F FOG              
APALACHICOLA   CLOUDY    73  70  90 S20G29    29.66F                  

STATION/POSITION SKY/WX   TEMP    WIND        PRES    WAVE   SWELL
                          AIR SEA DIR/SP/G            HT/PER HT/PER
                          (F)     (DEG/KT/KT) (MB)    (FT/S) (FT/S)
30.1N   87.6W                                 1003.0F   6/ 7
29.2N   88.2W                     290/ 19/ 25 1004.9
PANAMA CITY BEAC           72 72  170/ 24/ 31 1003.0F
TOWER C          NOT AVBL

$$
FLZ011-016>038-118-127-128-134-139-239-191000-
NORTH FLORIDA
  
CITY           SKY/WX    TMP DP  RH WIND       PRES   REMARKS
MARIANNA       CLOUDY    75  71  87 S16       29.60F                  
TALLAHASSEE    CLOUDY    75  71  87 S13G28    29.67F                  
PERRY          CLOUDY    76  72  86 S18G26    29.74F                  
LIVE OAK       CLOUDY    72  72 100 SE8       29.74F                  
CROSS CITY     CLOUDY    76  71  86 S17       29.76F                  
LAKE CITY      MOCLDY    68  68 100 S7        29.77F                  
GAINESVILLE    FAIR      74  69  85 S9        29.81F                  
PALATKA        MOCLDY    72  72 100 S10       29.81F                  
MAYPORT NAS    MOCLDY    70  68  93 S9        29.79F                  
JACKSONVILLE   MOCLDY    71  68  90 S8        29.77F                  
JAX NAS        MOCLDY    72  68  87 S14       29.79F                  
JAX CECIL      FAIR      70  68  94 SE8       29.78F                  
FERNANDINA BEA CLOUDY    71  68  90 S12       29.78F                  
ST AUGUSTINE   MOCLDY    72  70  93 S10       29.82F                  
PALM COAST     FAIR      73  69  88 S13       29.83F                  

STATION/POSITION SKY/WX   TEMP    WIND        PRES    WAVE   SWELL
                          AIR SEA DIR/SP/G            HT/PER HT/PER
                          (F)     (DEG/KT/KT) (MB)    (FT/S) (FT/S)
SHELL POINT      NOT AVBL
KEATON BEACH               75     170/ 24/ 29 1007.1F
CEDAR KEY                  76     180/ 18/ 22 1008.1F
FERNANDINA                 73 73  160/  8/ 13 1009.1F
30.7N   81.3W                 68                N/A     5/ 7
MAYPORT                    70 72  170/  5/  7 1009.0F
31.4N   80.9W              70 68  170/ 25/ 33 1007.8F   6/ 7
ST AUGUSTINE               74 72  180/ 15/ 18 1009.4F

$$
FLZ040-043>046-052-053-057-058-063-144-191000-
INTERIOR CENTRAL FLORIDA
  
CITY           SKY/WX    TMP DP  RH WIND       PRES   REMARKS
OCALA          FAIR      72  70  93 S10G16    29.81F                  
LEESBURG       MOCLDY    73  70  90 S15       29.84F                  
SANFORD        FAIR      74  71  91 S13       29.85F                  
ORLANDO EXEC   MOCLDY    74  70  87 S15       29.86F                  
ORLANDO INTL   CLOUDY    73  70  90 S13       29.86F                  
KISSIMMEE      CLOUDY    74  72  93 S12       29.87F                  
WINTER HAVEN   CLOUDY    75  71  87 S13       29.87F                  
BARTOW         CLOUDY    73  70  88 SE10      29.85F                  
SEBRING        PTSUNNY   73  72  95 S12       29.88F                  
OKEECHOBEE     MOCLDY    75  72  88 S10       29.88F                  

$$
FLZ041-047-054-059-064-141-147-191000-
EAST CENTRAL FLORIDA
  
CITY           SKY/WX    TMP DP  RH WIND       PRES   REMARKS
DAYTONA BEACH  FAIR      74  73  97 S13G22    29.84F                  
DELAND         FAIR      73  70  88 S14       29.84F                  
JFK SPACE CTR  FAIR      76  70  84 S14       29.86F                  
CAPE CANAVERAL FAIR      76  70  80 S13       29.86F                  
PATRICK AFB    FAIR      76  74  93 S15       29.87F                  
MELBOURNE      MOCLDY    75  70  84 S8        29.88S                  
VERO BEACH     MOCLDY    77  70  79 S13       29.89S                  
FT PIERCE      FAIR      76  68  76 S8        29.89S                  
STUART         FAIR      77  68  73 S12G17    29.91S                  

STATION/POSITION SKY/WX   TEMP    WIND        PRES    WAVE   SWELL
                          AIR SEA DIR/SP/G            HT/PER HT/PER
                          (F)     (DEG/KT/KT) (MB)    (FT/S) (FT/S)
28.5N   80.2W              78     170/ 17/ 21 1012.1
28.9N   78.5W              77 77  150/ 21/ 27 1013.7F   7/ 7   2/13
TRIDENT PIER               76 78  160/ 16/ 19 1012.7F
28.4N   80.5W                 77                N/A     5/ 6
27.5N   80.2W                 76                N/A     5/ 5

$$
FLZ050-056-061-142-242-148-248-149-249-151-251-155-255-
160-260-191000-
WEST CENTRAL FLORIDA
  
CITY           SKY/WX    TMP DP  RH WIND       PRES   REMARKS
CRYSTAL RIVER  FAIR      72  68  88 SE8       29.80F                  
INVERNESS      FAIR      72  72 100 S9        29.82F                  
BROOKSVILLE    FAIR      73  70  90 SE9       29.83F                  
CLEARWATER AIR CLOUDY    77  72  83 S10G18    29.82S                  
ST PETE CLEARW FAIR      75  71  87 S13       29.82F                  
TAMPA INTL     FAIR      75  70  84 S9        29.83S                  
TAMPA EXEC     FAIR      73  70  88 S9        29.84S                  
PLANT CITY     FAIR      73  73 100 SE8       29.86S                  
MACDILL AFB    FAIR      75  71  87 S12       29.83S                  
PETER O KNIGHT CLOUDY    77  75  94 S13       29.83F                  
ST PETERSBURG    N/A    N/A N/A N/A MISG      29.81S                  
SARASOTA       MOCLDY    78  72  81 S20G28    29.81F                  
VENICE         CLOUDY    79  75  89 S20G26    29.84F                  

STATION/POSITION SKY/WX   TEMP    WIND        PRES    WAVE   SWELL
                          AIR SEA DIR/SP/G            HT/PER HT/PER
                          (F)     (DEG/KT/KT) (MB)    (FT/S) (FT/S)
27.3N   84.2W                 75                N/A     4/ 5
CLEARWATER BEACH           78 78  160/ 16/ 22 1009.4F
MIDDLE TAMPA BAY           75     160/ 14/ 16 1009.8F
VENICE                     78 78  160/ 20/ 22 1010.4F

$$
FLZ066-069-070-075>078-162-262-165-265-191000-
SOUTHWEST FLORIDA AND KEYS
  
CITY           SKY/WX    TMP DP  RH WIND       PRES   REMARKS
FT MYERS       FAIR      75  72  90 S7        29.85F                  
SOUTHWEST INTL MOCLDY    75  71  87 S9        29.86S                  
NAPLES         CLOUDY    80  75  84 S10       29.86R                  
MARCO ISLAND   CLOUDY    79  73  82 S20G25    29.88R                  
IMMOKALEE      CLOUDY    72  70  94 SE8       29.85F                  
MARATHON       CLOUDY    81  71  71 SE14G21   29.89R                  
KEY WEST NAS   CLOUDY    79  74  84 SE21      29.87F                  
KEY WEST INTL  MOCLDY    79  75  87 SE21      29.87F                  

STATION/POSITION SKY/WX   TEMP    WIND        PRES    WAVE   SWELL
                          AIR SEA DIR/SP/G            HT/PER HT/PER
                          (F)     (DEG/KT/KT) (MB)    (FT/S) (FT/S)
NAPLES                     81 80  150/  3/ 12 1011.2R
DRY TORTUGAS               79     180/ 12/ 13 1010.9F
SAND KEY                   78                 1011.5F
SOMBRERO KEY               78                 1011.6R

$$
FLZ067-068-071>074-168-172>174-191000-
SOUTHEAST FLORIDA 
  
CITY           SKY/WX    TMP DP  RH WIND       PRES   REMARKS
W PALM BEACH   MOCLDY    78  69  73 S15G28    29.90F                  
FT LAUDER-EXEC FAIR      79  71  76 SE15G24   29.89F                  
FT LAUDERDALE  FAIR      79  71  76 S20       29.89F                  
POMPANO BEACH  FAIR      79  71  76 S13G26    29.89F                  
PEMBROKE PINES FAIR      79  71  76 SE15G23   29.91S                  
OPA LOCKA      MOCLDY    80  71  74 S20G28    29.90F                  
MIAMI          CLOUDY    80  73  79 SE13G24   29.90F                  
WEST KENDALL   LGT RAIN  78  73  84 S14G24    29.89F                  
HOMESTEAD      CLOUDY    77  72  83 S15G21    29.89F                  

STATION/POSITION SKY/WX   TEMP    WIND        PRES    WAVE   SWELL
                          AIR SEA DIR/SP/G            HT/PER HT/PER
                          (F)     (DEG/KT/KT) (MB)    (FT/S) (FT/S)
VIRGINIA KEY               80 82  140/ 15/ 20 1012.0F
LAKE WORTH                 79 79  160/ 21/ 26 1013.5F
SETTLEMENT POINT           78     150/ 16/ 19 1013.1F

$$